Theta_e
308 310 311 311 311 310 309 310 306 306 307 308 309 309 308 308 308 310 310 310 310 310 308 308 307 307 305 306 306 307 307 309 308 311 312 317 326 322 324 334 335 336 340
303 306 307 307 307 307 307 307 306 306 306 307 307 308 307 307 307 308 307 307 306 307 308 305 303 303 301 301 301 302 302 304 305 305 309 311 316 312 315 322 331 326 334
301 303 304 304 305 306 309 308 307 306 307 307 309 307 307 305 303 302 303 303 304 304 303 303 301 300 299 298 299 299 298 297 300 305 303 303 304 306 312 314 314 319 315
301 302 302 302 302 303 305 307 307 306 307 305 302 301 299 299 298 298 299 301 302 302 302 301 300 299 298 297 297 298 297 296 294 297 299 298 301 299 299 306 306 305 305
300 301 301 302 302 303 303 303 303 303 302 302 301 300 299 298 298 297 297 298 299 300 301 299 298 297 297 296 296 295 294 294 293 292 292 294 295 300 296 294 296 298 301
299 300 301 301 301 302 302 302 302 301 302 302 301 299 298 297 296 296 295 295 296 296 298 298 297 296 295 295 294 294 293 292 292 291 291 291 294 293 292 291 292 293 296
297 298 298 299 301 300 300 301 300 299 300 301 300 300 298 297 296 295 295 294 294 294 294 295 295 294 295 295 294 292 292 291 290 290 289 290 293 294 293 291 290 291 293
297 299 298 298 299 299 299 299 299 298 299 299 298 298 298 298 296 296 295 295 294 295 295 295 295 295 296 295 293 292 292 291 290 290 289 289 291 295 294 292 291 289 291
297 298 299 299 297 298 299 299 298 299 299 298 298 297 297 298 296 295 295 295 294 297 297 296 295 295 295 294 292 291 291 290 289 289 290 291 293 295 295 294 294 291 286
297 297 297 298 299 298 298 300 300 298 299 299 299 298 299 297 296 297 295 294 294 294 296 295 295 294 294 293 292 291 291 290 289 291 290 290 293 293 293 294 295 294 291
295 294 295 297 298 299 300 299 299 301 301 301 301 299 299 296 296 296 295 293 293 293 294 295 294 294 293 292 291 290 292 291 290 289 290 291 294 294 294 294 294 294 294
295 296 297 298 296 297 298 298 298 298 300 300 299 299 299 296 295 294 294 293 292 293 293 295 294 294 293 292 291 291 291 290 289 289 288 289 294 293 294 294 293 294 295
296 297 297 298 297 297 297 297 297 297 298 299 298 298 296 294 293 292 291 292 292 292 293 294 293 292 293 291 292 291 291 289 288 287 287 289 292 292 293 295 295 296 297
297 297 297 296 298 297 296 295 296 297 297 297 296 296 294 294 293 292 291 292 292 292 292 293 292 292 292 291 292 291 289 288 288 288 288 289 292 292 295 296 296 296 295
295 295 295 295 295 294 295 296 296 296 296 297 296 295 295 294 293 293 293 292 292 292 292 292 291 290 291 292 290 289 288 286 286 287 288 289 294 298 298 296 295 296 295
295 296 296 295 296 296 295 296 294 295 295 295 295 295 296 295 294 292 292 291 291 291 291 291 290 288 291 295 296 293 286 286 285 284 286 288 292 293 297 298 299 298 295
295 295 295 295 295 296 296 294 294 295 295 295 296 296 295 295 294 293 292 291 291 290 290 290 290 288 287 294 296 296 287 285 285 284 285 286 290 292 291 296 297 296 298
295 296 296 294 294 295 296 296 296 296 296 295 296 296 296 294 294 293 292 291 290 290 290 290 290 288 288 295 296 296 288 285 284 284 285 285 287 289 292 293 291 293 294
294 294 294 294 294 294 296 296 295 295 295 295 294 296 296 294 293 292 291 291 289 289 290 290 290 288 288 293 295 294 287 285 284 285 286 287 289 292 294 290 289 291 293
294 294 294 294 294 293 295 294 294 294 294 295 296 296 296 294 292 291 290 290 289 290 291 291 290 292 289 292 294 293 287 283 284 284 285 290 291 293 293 289 289 289 290
294 295 295 294 293 293 294 293 293 293 295 297 297 297 296 294 293 291 290 290 289 290 290 290 290 289 288 288 293 294 287 284 283 284 285 287 291 292 292 292 289 289 292
294 294 292 292 293 294 294 293 293 295 296 297 296 296 295 295 295 292 291 291 289 288 288 287 288 289 287 290 291 292 292 291 283 284 285 286 291 291 291 290 291 291 292
292 293 292 292 293 294 293 293 295 295 295 295 294 293 294 295 294 291 291 290 289 287 287 286 285 286 284 283 290 290 290 290 287 285 288 293 291 290 289 290 290 290 289
293 294 293 292 293 294 296 294 296 295 294 294 293 293 292 293 293 292 291 290 289 288 288 287 284 283 280 281 283 282 282 286 286 287 284 289 290 289 289 288 288 288 288
294 294 293 293 294 296 297 299 298 298 296 294 295 293 294 293 293 292 292 292 291 290 289 288 286 284 283 284 286 286 285 285 286 288 283 282 282 284 285 286 287 287 288
293 292 293 295 296 295 297 299 299 299 297 296 295 294 296 297 296 293 293 293 293 293 291 291 289 286 288 289 289 290 290 289 289 283 281 280 281 282 284 285 286 286 287
Wind_Speed
7 8 8 7 5 5 8 8 9 8 6 4 3 4 6 6 8 9 11 12 11 11 11 7 8 8 9 9 10 7 8 6 11 5 5 3 4 5 5 5 4 4 2
8 8 6 6 7 6 7 8 8 9 7 4 3 3 2 4 4 7 10 10 11 11 10 9 8 9 7 9 10 10 5 4 8 5 4 6 4 7 7 4 5 9 6
13 8 7 6 6 7 5 7 7 8 8 7 3 3 3 4 5 6 7 8 10 10 10 10 8 8 8 8 8 9 10 6 4 8 5 5 4 10 4 5 6 6 7
8 6 7 6 7 6 6 6 7 7 6 6 7 9 5 7 2 3 3 5 7 8 9 8 8 7 6 8 8 7 6 6 8 4 6 3 2 4 8 3 6 9 10
11 10 7 7 6 6 6 6 7 8 7 7 7 6 7 4 3 3 6 6 5 6 7 6 6 6 5 6 6 6 7 5 4 3 4 3 4 5 3 8 6 8 6
10 8 6 7 6 5 6 6 7 5 6 7 7 8 8 6 5 4 4 3 3 4 5 5 5 5 5 5 4 6 6 5 4 3 4 3 3 5 5 6 12 13 6
12 11 9 7 6 6 6 7 8 6 6 7 6 6 7 7 6 3 2 4 2 2 3 3 5 4 4 4 4 5 5 5 5 5 3 2 4 5 5 6 9 10 11
12 12 9 7 7 7 5 6 8 7 6 6 6 6 6 4 3 3 2 2 1 1 2 4 5 5 5 5 5 3 4 5 4 6 4 3 3 5 5 6 8 10 6
12 13 12 9 7 7 7 7 6 6 6 6 5 6 5 5 4 4 3 2 4 4 3 5 5 6 6 6 4 3 4 5 5 6 5 4 4 5 6 5 5 6 9
11 10 7 7 4 6 7 6 6 7 6 5 5 4 6 5 5 5 6 6 5 5 5 5 4 6 6 6 5 5 4 5 4 5 7 5 5 6 5 6 7 6 8
10 8 6 5 6 5 8 6 6 6 6 5 4 5 5 6 6 5 3 3 4 5 5 4 4 5 6 5 5 5 6 6 7 6 7 10 9 7 6 6 7 8 9
9 9 11 9 7 8 9 8 5 5 5 5 4 5 5 5 5 3 3 3 4 4 4 4 3 4 4 4 5 6 6 6 8 9 7 9 8 10 9 7 10 10 11
13 10 9 7 7 8 8 7 6 6 5 5 5 5 5 5 4 2 2 2 3 4 5 5 3 4 5 5 5 5 6 6 6 7 8 10 11 11 10 10 9 10 10
13 13 11 6 6 6 7 7 5 6 5 5 5 6 6 5 4 2 1 2 2 4 4 3 4 4 5 5 5 5 6 6 7 7 8 9 11 12 13 11 12 12 13
14 11 9 6 7 6 6 5 5 5 4 6 5 5 6 5 4 3 0 1 2 2 2 3 5 4 4 3 5 5 6 6 7 8 8 9 15 22 17 11 13 15 14
11 10 9 8 8 7 6 5 5 5 5 6 5 5 5 5 6 4 3 3 3 3 3 4 4 5 4 9 11 10 5 7 7 9 10 9 17 16 23 23 26 23 17
11 10 9 7 5 6 5 6 5 5 6 5 4 5 6 5 6 5 4 5 5 3 5 6 5 7 6 10 10 12 4 6 7 8 9 9 9 17 13 20 26 23 26
11 10 8 6 6 4 4 6 5 5 5 4 4 4 4 3 4 4 6 5 4 6 6 7 7 6 6 12 11 12 6 6 8 7 9 9 12 13 17 17 17 16 16
6 5 6 5 5 6 6 6 5 4 4 4 4 4 4 4 4 5 6 5 4 5 6 6 7 6 8 12 13 9 5 6 9 9 10 9 11 18 24 16 17 17 16
6 7 6 5 6 4 6 7 5 3 3 4 5 5 5 5 6 6 6 4 4 6 5 7 7 10 8 11 13 11 4 6 7 9 9 17 16 22 23 15 15 15 17
7 6 6 7 6 5 6 5 4 5 5 5 5 5 5 6 6 5 3 5 6 5 6 6 7 7 6 8 13 13 5 5 6 7 7 8 21 23 23 22 11 16 20
5 6 6 5 5 5 6 6 7 8 7 6 6 5 5 4 4 5 5 6 5 4 6 6 7 6 5 8 11 11 13 12 4 7 7 8 19 22 23 18 23 25 22
6 5 6 7 6 6 6 6 10 7 7 5 7 7 6 6 4 4 6 4 2 3 6 4 5 6 4 5 12 11 13 12 7 5 10 17 17 19 15 21 24 21 11
5 5 7 7 7 7 6 9 9 7 5 7 8 7 6 7 6 4 4 4 4 4 5 5 4 4 3 4 5 5 5 10 9 11 7 11 13 16 16 14 13 10 10
7 6 6 7 9 8 8 10 11 10 10 8 10 8 6 7 6 6 6 5 6 6 4 4 4 3 5 5 7 5 5 5 7 9 3 4 4 8 9 10 11 10 11
6 6 7 8 11 7 8 10 9 9 10 10 9 8 8 8 7 3 6 6 9 12 8 11 7 3 8 11 12 12 12 12 13 2 3 4 5 6 8 9 10 10 14
Wind_Direction
141 125 113 103 83 57 49 41 43 27 37 39 33 37 53 54 52 54 46 46 39 40 38 34 30 21 31 24 19 351 360 359 353 323 322 305 279 68 29 40 12 22 11
133 129 125 115 106 87 60 49 45 37 39 44 42 61 60 53 62 55 48 43 43 38 43 36 33 30 29 28 26 21 355 346 10 343 302 346 339 15 341 45 36 3 354
151 146 129 106 81 78 75 59 50 50 45 45 31 24 35 46 50 45 44 38 46 45 44 41 38 34 32 30 29 23 25 6 341 25 10 344 332 337 325 24 27 27 354
140 134 123 107 107 100 79 74 65 60 57 52 73 72 76 83 31 54 53 46 37 49 47 45 44 41 39 38 34 33 32 30 26 347 9 353 344 330 319 354 336 0 338
154 142 144 137 126 115 105 93 78 67 66 72 80 87 83 79 63 51 62 48 28 35 47 46 47 43 41 38 36 30 30 33 31 17 333 339 328 59 319 306 326 323 326
142 134 134 129 127 125 117 110 101 78 78 83 79 87 93 83 70 48 49 35 30 23 32 41 45 49 46 38 31 25 25 18 23 8 7 353 352 348 337 308 317 310 308
142 141 152 149 148 154 146 130 117 110 107 101 99 106 104 100 98 84 64 38 12 359 21 41 38 31 39 39 35 34 25 10 8 358 338 330 346 327 312 307 308 308 310
148 154 153 159 160 160 163 126 124 126 117 105 94 87 92 93 81 82 89 62 31 286 11 41 37 33 29 28 41 47 20 10 350 334 328 282 304 334 320 311 314 315 310
155 155 160 161 155 151 159 141 123 122 125 123 107 91 101 91 85 68 72 58 32 3 33 37 29 23 13 10 34 24 18 5 341 324 313 321 321 326 310 296 292 300 311
153 148 150 135 146 131 130 130 123 141 138 129 112 101 108 84 67 53 38 35 27 22 41 45 34 25 15 12 30 351 327 351 324 326 323 310 322 319 306 296 289 281 268
146 136 125 129 121 108 122 113 120 130 146 131 125 119 96 70 63 60 24 11 31 25 35 57 30 23 18 11 7 342 333 342 319 312 321 309 321 320 311 300 286 280 277
130 138 142 146 135 124 132 135 122 116 156 133 136 138 124 110 94 58 18 25 34 28 39 51 23 357 353 332 338 335 332 328 321 314 305 297 311 318 301 286 284 281 279
141 130 121 139 142 143 129 127 131 126 145 136 140 150 135 122 117 80 43 35 28 29 33 40 357 344 336 332 321 314 316 310 301 299 299 295 303 312 302 293 288 294 295
143 133 137 158 131 142 129 132 143 133 141 146 139 144 149 154 161 175 97 62 26 38 23 14 359 357 329 324 312 309 306 304 313 299 296 287 305 302 301 309 310 307 303
139 152 141 144 138 124 120 137 138 127 134 124 130 146 160 171 183 203 207 356 33 7 347 350 350 335 309 291 323 313 309 307 308 305 298 297 302 314 309 311 312 311 307
145 143 149 156 148 147 138 143 126 119 129 129 129 134 170 187 206 225 250 289 304 316 326 316 300 307 285 299 320 341 324 316 309 304 304 294 305 301 311 310 312 312 311
146 152 160 153 146 132 146 139 136 129 120 129 144 150 170 194 218 229 256 276 283 282 282 284 280 288 292 298 303 322 315 301 288 284 292 302 305 311 301 303 312 306 301
155 151 154 139 145 130 109 120 128 139 141 154 167 193 204 203 219 238 252 268 269 267 269 275 268 277 286 298 297 302 300 290 285 281 288 289 297 298 310 311 308 302 299
126 137 136 137 137 138 145 130 140 153 163 188 221 237 223 236 251 255 260 256 252 268 255 254 276 262 281 290 292 301 292 297 299 300 299 298 302 302 312 318 310 305 302
121 134 131 121 145 151 148 143 167 170 214 250 258 260 251 238 251 257 270 252 234 266 280 280 250 253 257 282 291 302 280 294 301 299 294 301 306 314 317 320 314 308 312
131 135 142 161 180 162 150 166 181 218 230 232 239 241 245 245 252 272 247 264 267 267 275 271 282 271 246 279 287 298 293 268 289 292 295 296 307 317 323 323 312 311 314
120 147 154 195 211 192 166 198 213 229 223 220 233 248 254 254 241 247 280 278 263 284 288 296 294 284 283 282 276 292 300 303 282 289 288 291 305 320 322 325 319 322 327
167 175 190 216 237 221 191 218 243 240 242 240 246 244 253 259 224 239 267 295 269 258 279 277 273 275 314 294 290 302 305 312 314 283 286 305 315 319 322 323 331 332 324
200 201 197 217 240 236 216 227 249 239 228 238 248 246 233 249 248 243 238 250 272 281 267 272 265 272 294 288 288 288 312 321 321 313 306 301 317 315 318 327 330 329 328
219 212 210 226 241 238 227 235 237 236 234 239 250 246 228 233 240 231 225 228 245 205 245 253 233 243 281 259 245 277 306 300 283 298 298 313 316 322 328 337 337 336 339
223 230 237 239 250 251 244 245 236 227 230 235 244 244 244 243 241 277 323 226 254 281 239 241 221 244 238 274 295 303 318 326 321 330 304 303 306 311 323 333 337 342 341